Time,TemperatureF,DewpointF,PressureIn,WindDirection,WindDirectionDegrees,WindSpeedMPH,WindSpeedGustMPH,Humidity,HourlyPrecipIn,Conditions,Clouds,dailyrainin,SoftwareType,DateUTC
2013-03-04 00:00:00,17.7,16.0,29.77,WNW,294,15.0,23.0,93,0.00,,---,0.00,VWS V14.01,2013-03-04 05:00:00,
2013-03-04 00:01:00,17.7,16.0,29.77,WNW,283,17.0,23.0,93,0.00,,---,0.00,VWS V14.01,2013-03-04 05:01:00,
2013-03-04 00:03:00,17.7,16.0,29.77,WNW,292,14.0,23.0,93,0.00,,---,0.00,VWS V14.01,2013-03-04 05:03:00,
2013-03-04 00:08:00,17.7,16.0,29.77,WNW,297,17.0,23.0,93,0.00,,---,0.00,VWS V14.01,2013-03-04 05:08:00,
2013-03-04 00:14:00,17.7,16.0,29.77,WNW,297,15.0,21.0,93,0.00,,---,0.00,VWS V14.01,2013-03-04 05:14:00,
2013-03-04 00:17:00,17.7,16.0,29.77,WNW,292,11.0,21.0,93,0.00,,---,0.00,VWS V14.01,2013-03-04 05:17:00,
2013-03-04 00:22:00,17.8,16.1,29.77,WNW,293,14.0,25.0,93,0.00,,---,0.00,VWS V14.01,2013-03-04 05:22:00,
2013-03-04 00:27:00,17.8,16.1,29.77,West,280,13.0,20.0,93,0.00,,---,0.00,VWS V14.01,2013-03-04 05:27:00,
2013-03-04 00:32:00,17.8,16.1,29.77,WNW,295,18.0,22.0,93,0.00,,---,0.00,VWS V14.01,2013-03-04 05:32:00,
2013-03-04 00:37:00,17.8,15.9,29.78,WNW,289,11.0,22.0,92,0.00,,---,0.00,VWS V14.01,2013-03-04 05:37:00,
2013-03-04 00:43:00,17.9,16.0,29.78,NW,307,10.0,22.0,92,0.00,,---,0.00,VWS V14.01,2013-03-04 05:43:00,
2013-03-04 00:48:00,17.9,16.2,29.78,WNW,292,8.0,22.0,93,0.00,,---,0.00,VWS V14.01,2013-03-04 05:48:00,
2013-03-04 00:53:00,17.8,16.1,29.78,WNW,301,17.0,20.0,93,0.00,,---,0.00,VWS V14.01,2013-03-04 05:53:00,
2013-03-04 00:59:00,17.8,16.1,29.78,WNW,287,10.0,21.0,93,0.00,,---,0.00,VWS V14.01,2013-03-04 05:59:00,
2013-03-04 01:04:00,17.8,16.1,29.78,WNW,297,15.0,22.0,93,0.00,,---,0.00,VWS V14.01,2013-03-04 06:04:00,
2013-03-04 01:10:00,17.9,16.2,29.78,WNW,283,7.0,17.0,93,0.00,,---,0.00,VWS V14.01,2013-03-04 06:10:00,
2013-03-04 01:15:00,17.9,16.2,29.78,WNW,297,11.0,20.0,93,0.00,,---,0.00,VWS V14.01,2013-03-04 06:15:00,
2013-03-04 01:20:00,17.9,16.2,29.78,WNW,301,12.0,21.0,93,0.00,,---,0.00,VWS V14.01,2013-03-04 06:20:00,
2013-03-04 01:25:00,17.9,16.2,29.78,NW,305,11.0,21.0,93,0.00,,---,0.00,VWS V14.01,2013-03-04 06:25:00,
2013-03-04 01:31:00,18.0,16.3,29.78,WNW,291,11.0,20.0,93,0.00,,---,0.00,VWS V14.01,2013-03-04 06:31:00,
2013-03-04 01:36:00,18.0,16.3,29.78,WNW,283,16.0,23.0,93,0.00,,---,0.00,VWS V14.01,2013-03-04 06:36:00,
2013-03-04 01:41:00,18.0,16.3,29.78,WNW,291,11.0,20.0,93,0.00,,---,0.00,VWS V14.01,2013-03-04 06:41:00,
2013-03-04 01:46:00,18.0,16.3,29.78,WNW,295,8.0,20.0,93,0.00,,---,0.00,VWS V14.01,2013-03-04 06:46:00,
2013-03-04 01:51:00,18.0,16.1,29.77,WNW,302,16.0,20.0,92,0.00,,---,0.00,VWS V14.01,2013-03-04 06:51:00,
2013-03-04 01:56:00,18.1,16.2,29.77,WNW,293,11.0,20.0,92,0.00,,---,0.00,VWS V14.01,2013-03-04 06:56:00,
2013-03-04 02:01:00,18.1,16.2,29.78,WNW,287,13.0,21.0,92,0.00,,---,0.00,VWS V14.01,2013-03-04 07:01:00,
2013-03-04 02:06:00,18.2,16.3,29.77,WNW,290,12.0,27.0,92,0.00,,---,0.00,VWS V14.01,2013-03-04 07:06:00,
2013-03-04 02:11:00,18.2,16.3,29.77,NW,305,17.0,21.0,92,0.00,,---,0.00,VWS V14.01,2013-03-04 07:11:00,
2013-03-04 02:16:00,18.3,16.1,29.77,WNW,297,11.0,24.0,91,0.00,,---,0.00,VWS V14.01,2013-03-04 07:16:00,
2013-03-04 02:21:00,18.4,16.2,29.77,WNW,303,10.0,23.0,91,0.00,,---,0.00,VWS V14.01,2013-03-04 07:21:00,
2013-03-04 02:26:00,18.4,16.2,29.77,NW,304,17.0,23.0,91,0.00,,---,0.00,VWS V14.01,2013-03-04 07:26:00,
2013-03-04 02:31:00,18.4,16.2,29.77,NW,304,19.0,22.0,91,0.00,,---,0.00,VWS V14.01,2013-03-04 07:31:00,
2013-03-04 02:36:00,18.5,16.6,29.76,NW,317,15.0,23.0,92,0.00,,---,0.00,VWS V14.01,2013-03-04 07:36:00,
2013-03-04 02:42:00,18.5,16.6,29.77,WNW,294,12.0,25.0,92,0.00,,---,0.00,VWS V14.01,2013-03-04 07:42:00,
2013-03-04 02:47:00,18.5,16.8,29.77,NW,305,14.0,24.0,93,0.00,,---,0.00,VWS V14.01,2013-03-04 07:47:00,
2013-03-04 02:52:00,18.5,16.8,29.77,WNW,297,12.0,19.0,93,0.00,,---,0.00,VWS V14.01,2013-03-04 07:52:00,
2013-03-04 02:57:00,18.6,16.9,29.77,NW,308,11.0,22.0,93,0.00,,---,0.00,VWS V14.01,2013-03-04 07:57:00,
2013-03-04 03:03:00,18.6,16.9,29.76,West,266,21.0,23.0,93,0.00,,---,0.00,VWS V14.01,2013-03-04 08:03:00,
2013-03-04 03:08:00,18.7,17.3,29.77,NW,311,14.0,27.0,94,0.00,,---,0.00,VWS V14.01,2013-03-04 08:08:00,
2013-03-04 03:14:00,18.7,17.3,29.77,NW,304,7.0,19.0,94,0.00,,---,0.00,VWS V14.01,2013-03-04 08:14:00,
2013-03-04 03:19:00,18.7,17.3,29.77,NNW,330,17.0,22.0,94,0.00,,---,0.00,VWS V14.01,2013-03-04 08:19:00,
2013-03-04 03:24:00,18.8,17.4,29.77,NW,309,21.0,24.0,94,0.00,,---,0.00,VWS V14.01,2013-03-04 08:24:00,
2013-03-04 03:29:00,18.9,17.5,29.77,NW,308,16.0,25.0,94,0.00,,---,0.00,VWS V14.01,2013-03-04 08:29:00,
2013-03-04 03:34:00,18.9,17.5,29.77,WNW,295,14.0,27.0,94,0.00,,---,0.00,VWS V14.01,2013-03-04 08:34:00,
2013-03-04 03:39:00,19.0,17.6,29.77,WNW,300,13.0,21.0,94,0.00,,---,0.00,VWS V14.01,2013-03-04 08:39:00,
2013-03-04 03:44:00,19.0,17.6,29.77,NW,304,13.0,21.0,94,0.00,,---,0.00,VWS V14.01,2013-03-04 08:44:00,
2013-03-04 03:49:00,19.1,17.7,29.77,NW,304,12.0,24.0,94,0.00,,---,0.00,VWS V14.01,2013-03-04 08:49:00,
2013-03-04 03:54:00,19.1,17.7,29.77,WNW,300,10.0,24.0,94,0.00,,---,0.00,VWS V14.01,2013-03-04 08:54:00,
2013-03-04 04:00:00,19.2,18.0,29.77,WNW,295,17.0,26.0,95,0.00,,---,0.00,VWS V14.01,2013-03-04 09:00:00,
2013-03-04 04:05:00,19.2,18.0,29.77,WNW,302,18.0,28.0,95,0.00,,---,0.00,VWS V14.01,2013-03-04 09:05:00,
2013-03-04 04:10:00,19.3,18.1,29.77,WNW,302,15.0,28.0,95,0.00,,---,0.00,VWS V14.01,2013-03-04 09:10:00,
2013-03-04 04:15:00,19.3,18.1,29.77,West,281,17.0,26.0,95,0.00,,---,0.00,VWS V14.01,2013-03-04 09:15:00,
2013-03-04 04:20:00,19.4,18.2,29.77,WNW,293,13.0,29.0,95,0.00,,---,0.00,VWS V14.01,2013-03-04 09:20:00,
2013-03-04 04:25:00,19.4,18.2,29.77,WNW,295,19.0,26.0,95,0.00,,---,0.00,VWS V14.01,2013-03-04 09:25:00,
2013-03-04 04:30:00,19.4,18.2,29.77,WNW,294,17.0,24.0,95,0.00,,---,0.00,VWS V14.01,2013-03-04 09:30:00,
2013-03-04 04:35:00,19.4,18.2,29.76,NW,311,26.0,27.0,95,0.00,,---,0.00,VWS V14.01,2013-03-04 09:35:00,
2013-03-04 04:40:00,19.5,18.3,29.77,WNW,300,17.0,34.0,95,0.00,,---,0.00,VWS V14.01,2013-03-04 09:40:00,
2013-03-04 04:45:00,19.5,18.3,29.77,NW,324,14.0,26.0,95,0.00,,---,0.00,VWS V14.01,2013-03-04 09:45:00,
2013-03-04 04:50:00,19.5,18.3,29.76,WNW,293,24.0,24.0,95,0.00,,---,0.00,VWS V14.01,2013-03-04 09:50:00,
2013-03-04 04:55:00,19.6,18.4,29.77,WNW,302,23.0,35.0,95,0.00,,---,0.00,VWS V14.01,2013-03-04 09:55:00,
2013-03-04 05:00:00,19.6,18.4,29.77,WNW,298,16.0,29.0,95,0.00,,---,0.00,VWS V14.01,2013-03-04 10:00:00,
2013-03-04 05:05:00,19.6,18.4,29.77,WNW,288,26.0,28.0,95,0.00,,---,0.00,VWS V14.01,2013-03-04 10:05:00,
2013-03-04 05:10:00,19.6,18.2,29.76,WNW,297,24.0,31.0,94,0.00,,---,0.00,VWS V14.01,2013-03-04 10:10:00,
2013-03-04 05:15:00,19.7,18.3,29.77,WNW,291,21.0,33.0,94,0.00,,---,0.00,VWS V14.01,2013-03-04 10:15:00,
2013-03-04 05:20:00,19.7,18.3,29.77,WNW,300,21.0,35.0,94,0.00,,---,0.00,VWS V14.01,2013-03-04 10:20:00,
2013-03-04 05:25:00,19.7,18.3,29.78,WNW,296,18.0,29.0,94,0.00,,---,0.00,VWS V14.01,2013-03-04 10:25:00,
2013-03-04 05:30:00,19.7,18.3,29.77,WNW,291,18.0,28.0,94,0.00,,---,0.00,VWS V14.01,2013-03-04 10:30:00,
2013-03-04 05:35:00,19.8,18.1,29.77,WNW,297,18.0,31.0,93,0.00,,---,0.00,VWS V14.01,2013-03-04 10:35:00,
2013-03-04 05:40:00,19.8,18.1,29.77,WNW,299,23.0,32.0,93,0.00,,---,0.00,VWS V14.01,2013-03-04 10:40:00,
2013-03-04 05:45:00,19.8,18.1,29.78,WNW,291,20.0,33.0,93,0.00,,---,0.00,VWS V14.01,2013-03-04 10:45:00,
2013-03-04 05:50:00,19.8,18.1,29.77,NW,314,21.0,31.0,93,0.00,,---,0.00,VWS V14.01,2013-03-04 10:50:00,
2013-03-04 05:56:00,19.8,17.9,29.78,WNW,300,11.0,27.0,92,0.00,,---,0.00,VWS V14.01,2013-03-04 10:56:00,
2013-03-04 06:01:00,19.8,17.9,29.78,WNW,295,16.0,33.0,92,0.00,,---,0.00,VWS V14.01,2013-03-04 11:01:00,
2013-03-04 06:06:00,19.8,17.9,29.78,WNW,301,20.0,30.0,92,0.00,,---,0.00,VWS V14.01,2013-03-04 11:06:00,
2013-03-04 06:11:00,19.8,17.9,29.78,WNW,287,20.0,25.0,92,0.00,,---,0.00,VWS V14.01,2013-03-04 11:11:00,
2013-03-04 06:16:00,19.8,17.9,29.78,WNW,302,16.0,26.0,92,0.00,,---,0.00,VWS V14.01,2013-03-04 11:16:00,
2013-03-04 06:21:00,19.8,17.9,29.78,NW,323,21.0,25.0,92,0.00,,---,0.00,VWS V14.01,2013-03-04 11:21:00,
2013-03-04 06:26:00,19.8,17.9,29.79,WNW,291,22.0,29.0,92,0.00,,---,0.00,VWS V14.01,2013-03-04 11:26:00,
2013-03-04 06:31:00,19.8,17.6,29.79,NW,319,17.0,36.0,91,0.00,,---,0.00,VWS V14.01,2013-03-04 11:31:00,
2013-03-04 06:36:00,19.8,17.6,29.79,WNW,302,15.0,26.0,91,0.00,,---,0.00,VWS V14.01,2013-03-04 11:36:00,
2013-03-04 06:41:00,19.8,17.6,29.79,WNW,292,13.0,32.0,91,0.00,,---,0.00,VWS V14.01,2013-03-04 11:41:00,
2013-03-04 06:46:00,19.8,17.9,29.78,WNW,300,15.0,32.0,92,0.00,,---,0.00,VWS V14.01,2013-03-04 11:46:00,
2013-03-04 06:51:00,19.7,17.8,29.78,WNW,295,26.0,31.0,92,0.00,,---,0.00,VWS V14.01,2013-03-04 11:51:00,
2013-03-04 06:56:00,19.7,17.8,29.78,WNW,302,16.0,30.0,92,0.00,,---,0.00,VWS V14.01,2013-03-04 11:56:00,
2013-03-04 07:01:00,19.7,17.5,29.78,West,279,23.0,40.0,91,0.00,,---,0.00,VWS V14.01,2013-03-04 12:01:00,
2013-03-04 07:06:00,19.8,17.6,29.78,NW,316,25.0,36.0,91,0.00,,---,0.00,VWS V14.01,2013-03-04 12:06:00,
2013-03-04 07:11:00,19.8,17.6,29.78,WNW,297,11.0,32.0,91,0.00,,---,0.00,VWS V14.01,2013-03-04 12:11:00,
2013-03-04 07:16:00,19.8,17.6,29.79,NW,304,16.0,26.0,91,0.00,,---,0.00,VWS V14.01,2013-03-04 12:16:00,
2013-03-04 07:21:00,19.8,17.6,29.78,NW,308,18.0,21.0,91,0.00,,---,0.00,VWS V14.01,2013-03-04 12:21:00,
2013-03-04 07:26:00,19.8,17.6,29.78,WNW,300,13.0,28.0,91,0.00,,---,0.00,VWS V14.01,2013-03-04 12:26:00,
2013-03-04 07:31:00,19.8,17.4,29.78,WNW,297,15.0,28.0,90,0.00,,---,0.00,VWS V14.01,2013-03-04 12:31:00,
2013-03-04 07:36:00,19.8,17.4,29.78,NW,311,16.0,26.0,90,0.00,,---,0.00,VWS V14.01,2013-03-04 12:36:00,
2013-03-04 07:41:00,19.8,17.4,29.78,WNW,298,19.0,26.0,90,0.00,,---,0.00,VWS V14.01,2013-03-04 12:41:00,
2013-03-04 07:46:00,19.9,17.5,29.79,WNW,291,13.0,27.0,90,0.00,,---,0.00,VWS V14.01,2013-03-04 12:46:00,
2013-03-04 07:51:00,19.8,17.4,29.79,NW,311,14.0,24.0,90,0.00,,---,0.00,VWS V14.01,2013-03-04 12:51:00,
2013-03-04 07:56:00,19.9,17.5,29.78,NW,308,19.0,29.0,90,0.00,,---,0.00,VWS V14.01,2013-03-04 12:56:00,
2013-03-04 08:01:00,19.9,17.5,29.78,NW,323,17.0,30.0,90,0.00,,---,0.00,VWS V14.01,2013-03-04 13:01:00,
2013-03-04 08:06:00,20.1,17.4,29.78,WNW,295,21.0,24.0,89,0.00,,---,0.00,VWS V14.01,2013-03-04 13:06:00,
2013-03-04 08:11:00,20.2,17.5,29.78,WNW,295,11.0,27.0,89,0.00,,---,0.00,VWS V14.01,2013-03-04 13:11:00,
2013-03-04 08:16:00,20.2,17.5,29.78,WNW,297,12.0,27.0,89,0.00,,---,0.00,VWS V14.01,2013-03-04 13:16:00,
2013-03-04 08:22:00,20.3,17.6,29.79,WNW,294,21.0,26.0,89,0.00,,---,0.00,VWS V14.01,2013-03-04 13:22:00,
2013-03-04 08:27:00,20.3,17.6,29.78,NW,309,23.0,25.0,89,0.00,,---,0.00,VWS V14.01,2013-03-04 13:27:00,
2013-03-04 08:32:00,20.3,17.6,29.78,West,280,33.0,33.0,89,0.00,,---,0.00,VWS V14.01,2013-03-04 13:32:00,
2013-03-04 08:37:00,20.4,17.7,29.78,NW,304,19.0,27.0,89,0.00,,---,0.00,VWS V14.01,2013-03-04 13:37:00,
2013-03-04 08:42:00,20.4,17.7,29.78,WNW,297,16.0,28.0,89,0.00,,---,0.00,VWS V14.01,2013-03-04 13:42:00,
2013-03-04 08:47:00,20.4,17.7,29.78,WNW,294,15.0,23.0,89,0.00,,---,0.00,VWS V14.01,2013-03-04 13:47:00,
2013-03-04 08:52:00,20.5,17.5,29.78,NW,304,19.0,32.0,88,0.00,,---,0.00,VWS V14.01,2013-03-04 13:52:00,
2013-03-04 08:57:00,20.5,17.5,29.78,WNW,291,26.0,28.0,88,0.00,,---,0.00,VWS V14.01,2013-03-04 13:57:00,
2013-03-04 09:02:00,20.6,17.6,29.78,WNW,295,16.0,27.0,88,0.00,,---,0.00,VWS V14.01,2013-03-04 14:02:00,
2013-03-04 09:07:00,20.6,17.6,29.78,WNW,294,13.0,25.0,88,0.00,,---,0.00,VWS V14.01,2013-03-04 14:07:00,
2013-03-04 09:12:00,20.5,17.5,29.78,WNW,292,18.0,37.0,88,0.00,,---,0.00,VWS V14.01,2013-03-04 14:12:00,
2013-03-04 09:17:00,20.4,17.4,29.78,WNW,297,21.0,30.0,88,0.00,,---,0.00,VWS V14.01,2013-03-04 14:17:00,
2013-03-04 09:22:00,20.5,17.5,29.79,NW,305,20.0,28.0,88,0.00,,---,0.00,VWS V14.01,2013-03-04 14:22:00,
2013-03-04 09:27:00,20.5,17.5,29.79,NW,319,19.0,26.0,88,0.00,,---,0.00,VWS V14.01,2013-03-04 14:27:00,
2013-03-04 09:32:00,20.5,17.5,29.79,WNW,302,18.0,30.0,88,0.00,,---,0.00,VWS V14.01,2013-03-04 14:32:00,
2013-03-04 09:37:00,20.4,17.4,29.79,WNW,298,19.0,29.0,88,0.00,,---,0.00,VWS V14.01,2013-03-04 14:37:00,
2013-03-04 09:42:00,20.6,17.6,29.79,WNW,290,19.0,27.0,88,0.00,,---,0.00,VWS V14.01,2013-03-04 14:42:00,
2013-03-04 09:48:00,20.6,17.4,29.79,WNW,300,25.0,34.0,87,0.00,,---,0.00,VWS V14.01,2013-03-04 14:48:00,
2013-03-04 09:53:00,20.7,17.5,29.80,NW,308,24.0,31.0,87,0.00,,---,0.00,VWS V14.01,2013-03-04 14:53:00,
2013-03-04 09:58:00,20.7,17.5,29.80,WNW,294,17.0,33.0,87,0.00,,---,0.00,VWS V14.01,2013-03-04 14:58:00,
2013-03-04 10:03:00,20.6,17.4,29.80,West,271,25.0,28.0,87,0.00,,---,0.00,VWS V14.01,2013-03-04 15:03:00,
2013-03-04 10:08:00,20.7,17.5,29.80,WNW,297,14.0,25.0,87,0.00,,---,0.00,VWS V14.01,2013-03-04 15:08:00,
2013-03-04 10:13:00,20.6,17.4,29.80,West,276,14.0,26.0,87,0.00,,---,0.00,VWS V14.01,2013-03-04 15:13:00,
2013-03-04 10:18:00,20.8,17.8,29.80,WNW,293,14.0,19.0,88,0.00,,---,0.00,VWS V14.01,2013-03-04 15:18:00,
2013-03-04 10:23:00,20.8,17.5,29.80,WNW,293,16.0,25.0,87,0.00,,---,0.00,VWS V14.01,2013-03-04 15:23:00,
2013-03-04 10:28:00,20.8,17.5,29.80,NW,308,19.0,27.0,87,0.00,,---,0.00,VWS V14.01,2013-03-04 15:28:00,
2013-03-04 10:33:00,20.6,17.4,29.80,WNW,292,21.0,30.0,87,0.00,,---,0.00,VWS V14.01,2013-03-04 15:33:00,
2013-03-04 10:38:00,20.6,17.4,29.79,WNW,284,23.0,26.0,87,0.00,,---,0.00,VWS V14.01,2013-03-04 15:38:00,
2013-03-04 10:43:00,20.7,17.7,29.79,WNW,295,15.0,29.0,88,0.00,,---,0.00,VWS V14.01,2013-03-04 15:43:00,
2013-03-04 10:48:00,20.7,17.7,29.79,WNW,300,16.0,22.0,88,0.00,,---,0.00,VWS V14.01,2013-03-04 15:48:00,
2013-03-04 10:53:00,20.8,17.8,29.79,WNW,288,15.0,21.0,88,0.00,,---,0.00,VWS V14.01,2013-03-04 15:53:00,
2013-03-04 10:58:00,20.9,17.6,29.79,WNW,298,18.0,26.0,87,0.00,,---,0.00,VWS V14.01,2013-03-04 15:58:00,
2013-03-04 11:03:00,20.9,17.6,29.79,WNW,295,23.0,30.0,87,0.00,,---,0.00,VWS V14.01,2013-03-04 16:03:00,
2013-03-04 11:08:00,20.8,17.5,29.79,WNW,283,19.0,36.0,87,0.00,,---,0.00,VWS V14.01,2013-03-04 16:08:00,
2013-03-04 11:13:00,21.0,17.8,29.78,WNW,295,13.0,26.0,87,0.00,,---,0.00,VWS V14.01,2013-03-04 16:13:00,
2013-03-04 11:18:00,21.3,17.5,29.78,NW,305,16.0,32.0,85,0.00,,---,0.00,VWS V14.01,2013-03-04 16:18:00,
2013-03-04 11:23:00,21.6,17.8,29.78,WNW,295,23.0,29.0,85,0.00,,---,0.00,VWS V14.01,2013-03-04 16:23:00,
2013-03-04 11:28:00,21.6,17.5,29.78,WNW,302,15.0,32.0,84,0.00,,---,0.00,VWS V14.01,2013-03-04 16:28:00,
2013-03-04 11:33:00,21.9,17.8,29.78,WNW,296,16.0,26.0,84,0.00,,---,0.00,VWS V14.01,2013-03-04 16:33:00,
2013-03-04 11:38:00,22.1,18.0,29.78,NNW,338,13.0,27.0,84,0.00,,---,0.00,VWS V14.01,2013-03-04 16:38:00,
2013-03-04 11:43:00,22.1,17.7,29.78,NW,305,20.0,33.0,83,0.00,,---,0.00,VWS V14.01,2013-03-04 16:43:00,
2013-03-04 11:48:00,22.5,18.4,29.78,NW,305,20.0,26.0,84,0.00,,---,0.00,VWS V14.01,2013-03-04 16:48:00,
2013-03-04 11:53:00,22.7,18.3,29.79,NW,308,12.0,24.0,83,0.00,,---,0.00,VWS V14.01,2013-03-04 16:53:00,
2013-03-04 11:58:00,22.7,18.3,29.78,WNW,290,30.0,30.0,83,0.00,,---,0.00,VWS V14.01,2013-03-04 16:58:00,
2013-03-04 12:03:00,22.4,18.0,29.79,WNW,292,14.0,35.0,83,0.00,,---,0.00,VWS V14.01,2013-03-04 17:03:00,
2013-03-04 12:08:00,22.6,18.5,29.78,NW,305,32.0,32.0,84,0.00,,---,0.00,VWS V14.01,2013-03-04 17:08:00,
2013-03-04 12:13:00,22.5,18.1,29.78,WNW,286,13.0,32.0,83,0.00,,---,0.00,VWS V14.01,2013-03-04 17:13:00,
2013-03-04 12:18:00,22.7,18.3,29.78,WNW,293,17.0,25.0,83,0.00,,---,0.00,VWS V14.01,2013-03-04 17:18:00,
2013-03-04 12:23:00,22.8,18.4,29.78,NW,309,19.0,32.0,83,0.00,,---,0.00,VWS V14.01,2013-03-04 17:23:00,
2013-03-04 12:28:00,22.9,18.2,29.78,WNW,301,23.0,32.0,82,0.00,,---,0.00,VWS V14.01,2013-03-04 17:28:00,
2013-03-04 12:33:00,23.3,18.6,29.78,WNW,288,24.0,26.0,82,0.00,,---,0.00,VWS V14.01,2013-03-04 17:33:00,
2013-03-04 12:38:00,23.4,18.7,29.78,WNW,294,16.0,32.0,82,0.00,,---,0.00,VWS V14.01,2013-03-04 17:38:00,
2013-03-04 12:43:00,23.6,18.6,29.78,NW,308,19.0,27.0,81,0.00,,---,0.00,VWS V14.01,2013-03-04 17:43:00,
2013-03-04 12:48:00,23.6,18.6,29.78,NNW,333,15.0,30.0,81,0.00,,---,0.00,VWS V14.01,2013-03-04 17:48:00,
2013-03-04 12:53:00,24.0,19.0,29.78,WNW,297,23.0,31.0,81,0.00,,---,0.00,VWS V14.01,2013-03-04 17:53:00,
2013-03-04 12:58:00,23.9,18.6,29.78,WNW,288,17.0,34.0,80,0.00,,---,0.00,VWS V14.01,2013-03-04 17:58:00,
2013-03-04 13:03:00,23.5,18.5,29.78,WNW,300,22.0,31.0,81,0.00,,---,0.00,VWS V14.01,2013-03-04 18:03:00,
2013-03-04 13:08:00,23.6,18.9,29.77,NW,306,13.0,30.0,82,0.00,,---,0.00,VWS V14.01,2013-03-04 18:08:00,
2013-03-04 13:13:00,23.8,18.8,29.77,NW,316,20.0,27.0,81,0.00,,---,0.00,VWS V14.01,2013-03-04 18:13:00,
2013-03-04 13:18:00,23.6,18.6,29.78,NW,314,13.0,29.0,81,0.00,,---,0.00,VWS V14.01,2013-03-04 18:18:00,
2013-03-04 13:23:00,23.9,18.9,29.78,WNW,297,13.0,36.0,81,0.00,,---,0.00,VWS V14.01,2013-03-04 18:23:00,
2013-03-04 13:28:00,24.0,18.7,29.77,NW,308,23.0,28.0,80,0.00,,---,0.00,VWS V14.01,2013-03-04 18:28:00,
2013-03-04 13:30:00,23.9,18.9,29.77,WNW,297,21.0,28.0,81,0.00,,---,0.00,VWS V14.01,2013-03-04 18:30:00,
2013-03-04 13:31:00,23.9,18.6,29.78,WNW,300,19.0,34.0,80,0.00,,---,0.00,VWS V14.01,2013-03-04 18:31:00,
2013-03-04 13:32:00,23.9,18.6,29.78,WNW,293,19.0,34.0,80,0.00,,---,0.00,VWS V14.01,2013-03-04 18:32:00,
2013-03-04 13:33:00,23.9,18.6,29.78,NW,305,20.0,34.0,80,0.00,,---,0.00,VWS V14.01,2013-03-04 18:33:00,
2013-03-04 13:38:00,24.0,18.7,29.78,NW,309,18.0,30.0,80,0.00,,---,0.00,VWS V14.01,2013-03-04 18:38:00,
2013-03-04 13:43:00,24.2,18.9,29.78,WNW,294,24.0,28.0,80,0.00,,---,0.00,VWS V14.01,2013-03-04 18:43:00,
2013-03-04 13:49:00,24.2,18.9,29.78,NW,305,19.0,28.0,80,0.00,,---,0.00,VWS V14.01,2013-03-04 18:49:00,
2013-03-04 13:54:00,24.0,18.7,29.78,WNW,293,17.0,27.0,80,0.00,,---,0.00,VWS V14.01,2013-03-04 18:54:00,
2013-03-04 14:00:00,23.8,18.8,29.78,WNW,298,28.0,29.0,81,0.00,,---,0.00,VWS V14.01,2013-03-04 19:00:00,
2013-03-04 14:06:00,23.4,18.7,29.79,NW,308,20.0,32.0,82,0.00,,---,0.00,VWS V14.01,2013-03-04 19:06:00,
2013-03-04 14:11:00,23.2,18.5,29.79,NW,311,21.0,32.0,82,0.00,,---,0.00,VWS V14.01,2013-03-04 19:11:00,
2013-03-04 14:17:00,22.9,18.5,29.79,WNW,292,17.0,26.0,83,0.00,,---,0.00,VWS V14.01,2013-03-04 19:17:00,
2013-03-04 14:22:00,22.8,18.7,29.79,NW,307,23.0,27.0,84,0.00,,---,0.00,VWS V14.01,2013-03-04 19:22:00,
2013-03-04 14:27:00,22.8,18.7,29.80,WNW,284,21.0,27.0,84,0.00,,---,0.00,VWS V14.01,2013-03-04 19:27:00,
2013-03-04 14:33:00,22.6,18.5,29.79,WNW,286,21.0,28.0,84,0.00,,---,0.00,VWS V14.01,2013-03-04 19:33:00,
2013-03-04 14:38:00,22.4,18.3,29.79,NW,304,25.0,30.0,84,0.00,,---,0.00,VWS V14.01,2013-03-04 19:38:00,
2013-03-04 14:44:00,22.3,18.2,29.80,WNW,290,19.0,36.0,84,0.00,,---,0.00,VWS V14.01,2013-03-04 19:44:00,
2013-03-04 14:49:00,22.2,18.1,29.80,WNW,302,26.0,30.0,84,0.00,,---,0.00,VWS V14.01,2013-03-04 19:49:00,
2013-03-04 14:54:00,22.1,18.3,29.80,WNW,299,22.0,32.0,85,0.00,,---,0.00,VWS V14.01,2013-03-04 19:54:00,
2013-03-04 14:59:00,22.1,18.3,29.80,WNW,292,19.0,27.0,85,0.00,,---,0.00,VWS V14.01,2013-03-04 19:59:00,
2013-03-04 15:04:00,22.1,18.3,29.80,NW,305,25.0,28.0,85,0.00,,---,0.00,VWS V14.01,2013-03-04 20:04:00,
2013-03-04 15:09:00,22.0,18.2,29.80,NNW,336,16.0,31.0,85,0.00,,---,0.00,VWS V14.01,2013-03-04 20:09:00,
2013-03-04 15:14:00,22.0,18.2,29.80,WNW,298,26.0,27.0,85,0.00,,---,0.00,VWS V14.01,2013-03-04 20:14:00,
2013-03-04 15:19:00,21.9,18.4,29.80,NW,319,20.0,36.0,86,0.00,,---,0.00,VWS V14.01,2013-03-04 20:19:00,
2013-03-04 15:24:00,21.7,18.2,29.80,WNW,298,19.0,29.0,86,0.00,,---,0.00,VWS V14.01,2013-03-04 20:24:00,
2013-03-04 15:29:00,21.8,18.3,29.80,West,281,18.0,26.0,86,0.00,,---,0.00,VWS V14.01,2013-03-04 20:29:00,
2013-03-04 15:34:00,21.8,18.3,29.80,NNW,347,15.0,34.0,86,0.00,,---,0.00,VWS V14.01,2013-03-04 20:34:00,
2013-03-04 15:39:00,21.9,18.4,29.80,NW,319,21.0,32.0,86,0.00,,---,0.00,VWS V14.01,2013-03-04 20:39:00,
2013-03-04 15:45:00,22.0,18.2,29.81,WNW,288,15.0,31.0,85,0.00,,---,0.00,VWS V14.01,2013-03-04 20:45:00,
2013-03-04 15:51:00,22.1,18.3,29.80,WNW,292,19.0,27.0,85,0.00,,---,0.00,VWS V14.01,2013-03-04 20:51:00,
2013-03-04 15:56:00,22.0,18.2,29.80,WNW,302,22.0,29.0,85,0.00,,---,0.00,VWS V14.01,2013-03-04 20:56:00,
2013-03-04 16:01:00,22.0,18.2,29.81,WNW,301,29.0,34.0,85,0.00,,---,0.00,VWS V14.01,2013-03-04 21:01:00,
2013-03-04 16:06:00,21.9,18.1,29.81,NW,315,18.0,38.0,85,0.00,,---,0.00,VWS V14.01,2013-03-04 21:06:00,
2013-03-04 16:11:00,21.9,18.1,29.80,WNW,297,23.0,33.0,85,0.00,,---,0.00,VWS V14.01,2013-03-04 21:11:00,
2013-03-04 16:16:00,21.9,18.1,29.81,WNW,300,16.0,31.0,85,0.00,,---,0.00,VWS V14.01,2013-03-04 21:16:00,
2013-03-04 16:21:00,22.0,17.9,29.81,WNW,295,22.0,32.0,84,0.00,,---,0.00,VWS V14.01,2013-03-04 21:21:00,
2013-03-04 16:26:00,22.0,17.9,29.81,NW,319,16.0,35.0,84,0.00,,---,0.00,VWS V14.01,2013-03-04 21:26:00,
2013-03-04 16:31:00,22.0,17.9,29.81,NW,304,23.0,29.0,84,0.00,,---,0.00,VWS V14.01,2013-03-04 21:31:00,
2013-03-04 16:36:00,22.0,17.9,29.81,WNW,302,20.0,35.0,84,0.00,,---,0.00,VWS V14.01,2013-03-04 21:36:00,
2013-03-04 16:42:00,22.1,18.0,29.82,WNW,298,24.0,35.0,84,0.00,,---,0.00,VWS V14.01,2013-03-04 21:42:00,
2013-03-04 16:47:00,22.1,18.0,29.83,NW,319,22.0,32.0,84,0.00,,---,0.00,VWS V14.01,2013-03-04 21:47:00,
2013-03-04 16:52:00,22.1,18.0,29.82,WNW,291,25.0,38.0,84,0.00,,---,0.00,VWS V14.01,2013-03-04 21:52:00,
2013-03-04 16:57:00,22.1,18.0,29.83,NW,304,20.0,29.0,84,0.00,,---,0.00,VWS V14.01,2013-03-04 21:57:00,
2013-03-04 17:02:00,22.1,18.0,29.83,WNW,288,25.0,29.0,84,0.00,,---,0.00,VWS V14.01,2013-03-04 22:02:00,
2013-03-04 17:07:00,22.1,18.0,29.83,WNW,300,15.0,30.0,84,0.00,,---,0.00,VWS V14.01,2013-03-04 22:07:00,
2013-03-04 17:12:00,22.1,18.0,29.83,WNW,300,15.0,27.0,84,0.00,,---,0.00,VWS V14.01,2013-03-04 22:12:00,
2013-03-04 17:17:00,22.1,18.0,29.83,WNW,293,14.0,30.0,84,0.00,,---,0.00,VWS V14.01,2013-03-04 22:17:00,
2013-03-04 17:22:00,22.1,18.0,29.83,WNW,294,15.0,34.0,84,0.00,,---,0.00,VWS V14.01,2013-03-04 22:22:00,
2013-03-04 17:28:00,22.0,17.9,29.82,WNW,295,24.0,39.0,84,0.00,,---,0.00,VWS V14.01,2013-03-04 22:28:00,
2013-03-04 17:33:00,22.0,17.9,29.83,West,276,19.0,34.0,84,0.00,,---,0.00,VWS V14.01,2013-03-04 22:33:00,
2013-03-04 17:38:00,21.9,18.1,29.83,WNW,300,24.0,32.0,85,0.00,,---,0.00,VWS V14.01,2013-03-04 22:38:00,
2013-03-04 17:43:00,21.9,18.1,29.82,WNW,283,34.0,34.0,85,0.00,,---,0.00,VWS V14.01,2013-03-04 22:43:00,
2013-03-04 17:48:00,21.8,18.0,29.83,WNW,295,29.0,39.0,85,0.00,,---,0.00,VWS V14.01,2013-03-04 22:48:00,
2013-03-04 17:54:00,21.7,17.9,29.84,NW,305,19.0,36.0,85,0.00,,---,0.00,VWS V14.01,2013-03-04 22:54:00,
2013-03-04 17:59:00,21.7,18.2,29.85,WNW,295,13.0,33.0,86,0.00,,---,0.00,VWS V14.01,2013-03-04 22:59:00,
2013-03-04 18:04:00,21.7,18.2,29.85,NW,311,17.0,29.0,86,0.00,,---,0.00,VWS V14.01,2013-03-04 23:04:00,
2013-03-04 18:09:00,21.7,18.2,29.85,WNW,298,18.0,24.0,86,0.00,,---,0.00,VWS V14.01,2013-03-04 23:09:00,
2013-03-04 18:14:00,21.6,18.3,29.86,NW,312,21.0,28.0,87,0.00,,---,0.00,VWS V14.01,2013-03-04 23:14:00,
2013-03-04 18:19:00,21.6,18.3,29.86,WNW,300,19.0,34.0,87,0.00,,---,0.00,VWS V14.01,2013-03-04 23:19:00,
2013-03-04 18:24:00,21.5,18.5,29.86,NW,326,18.0,29.0,88,0.00,,---,0.00,VWS V14.01,2013-03-04 23:24:00,
2013-03-04 18:29:00,21.5,18.5,29.86,NW,307,20.0,32.0,88,0.00,,---,0.00,VWS V14.01,2013-03-04 23:29:00,
2013-03-04 18:34:00,21.6,18.6,29.86,NW,304,29.0,34.0,88,0.00,,---,0.00,VWS V14.01,2013-03-04 23:34:00,
2013-03-04 18:39:00,21.6,18.6,29.86,West,276,21.0,27.0,88,0.00,,---,0.00,VWS V14.01,2013-03-04 23:39:00,
2013-03-04 18:44:00,21.5,18.8,29.85,WNW,285,24.0,24.0,89,0.00,,---,0.00,VWS V14.01,2013-03-04 23:44:00,
2013-03-04 18:49:00,21.6,18.6,29.85,West,281,28.0,35.0,88,0.00,,---,0.00,VWS V14.01,2013-03-04 23:49:00,
2013-03-04 18:54:00,21.6,18.9,29.85,WNW,287,19.0,35.0,89,0.00,,---,0.00,VWS V14.01,2013-03-04 23:54:00,
2013-03-04 18:59:00,21.6,18.9,29.85,WNW,298,16.0,35.0,89,0.00,,---,0.00,VWS V14.01,2013-03-04 23:59:00,
2013-03-04 19:04:00,21.6,18.9,29.85,NW,310,19.0,41.0,89,0.00,,---,0.00,VWS V14.01,2013-03-05 00:04:00,
2013-03-04 19:10:00,21.6,18.9,29.86,WNW,297,25.0,27.0,89,0.00,,---,0.00,VWS V14.01,2013-03-05 00:10:00,
2013-03-04 19:15:00,21.6,18.9,29.86,WNW,300,20.0,30.0,89,0.00,,---,0.00,VWS V14.01,2013-03-05 00:15:00,
2013-03-04 19:20:00,21.6,18.9,29.87,WNW,302,18.0,26.0,89,0.00,,---,0.00,VWS V14.01,2013-03-05 00:20:00,
2013-03-04 19:25:00,21.7,19.0,29.87,WNW,300,16.0,35.0,89,0.00,,---,0.00,VWS V14.01,2013-03-05 00:25:00,
2013-03-04 19:30:00,21.7,19.0,29.87,WNW,300,19.0,34.0,89,0.00,,---,0.00,VWS V14.01,2013-03-05 00:30:00,
2013-03-04 19:35:00,21.7,19.0,29.87,NW,315,19.0,31.0,89,0.00,,---,0.00,VWS V14.01,2013-03-05 00:35:00,
2013-03-04 19:40:00,21.7,19.0,29.88,WNW,300,13.0,22.0,89,0.00,,---,0.00,VWS V14.01,2013-03-05 00:40:00,
2013-03-04 19:45:00,21.8,19.1,29.88,NW,304,22.0,32.0,89,0.00,,---,0.00,VWS V14.01,2013-03-05 00:45:00,
2013-03-04 19:51:00,21.8,19.1,29.88,NW,313,17.0,29.0,89,0.00,,---,0.00,VWS V14.01,2013-03-05 00:51:00,
2013-03-04 19:56:00,21.7,19.0,29.89,WNW,295,19.0,29.0,89,0.00,,---,0.00,VWS V14.01,2013-03-05 00:56:00,
2013-03-04 20:01:00,21.7,19.2,29.89,WNW,284,17.0,28.0,90,0.00,,---,0.00,VWS V14.01,2013-03-05 01:01:00,
2013-03-04 20:06:00,21.6,19.1,29.89,NW,326,20.0,33.0,90,0.00,,---,0.00,VWS V14.01,2013-03-05 01:06:00,
2013-03-04 20:11:00,21.6,19.4,29.89,NW,319,20.0,27.0,91,0.00,,---,0.00,VWS V14.01,2013-03-05 01:11:00,
2013-03-04 20:16:00,21.5,19.3,29.89,NW,312,19.0,27.0,91,0.00,,---,0.00,VWS V14.01,2013-03-05 01:16:00,
2013-03-04 20:21:00,21.5,19.5,29.90,NW,318,24.0,28.0,92,0.00,,---,0.00,VWS V14.01,2013-03-05 01:21:00,
2013-03-04 20:26:00,21.5,19.5,29.91,WNW,300,10.0,28.0,92,0.00,,---,0.00,VWS V14.01,2013-03-05 01:26:00,
2013-03-04 20:31:00,21.4,19.7,29.91,WNW,300,13.0,27.0,93,0.00,,---,0.00,VWS V14.01,2013-03-05 01:31:00,
2013-03-04 20:36:00,21.4,19.7,29.91,WNW,298,18.0,29.0,93,0.00,,---,0.00,VWS V14.01,2013-03-05 01:36:00,
2013-03-04 20:41:00,21.4,19.7,29.91,NW,308,16.0,23.0,93,0.00,,---,0.00,VWS V14.01,2013-03-05 01:41:00,
2013-03-04 20:46:00,21.4,19.7,29.91,WNW,298,13.0,22.0,93,0.00,,---,0.00,VWS V14.01,2013-03-05 01:46:00,
2013-03-04 20:51:00,21.5,19.8,29.92,NW,307,12.0,24.0,93,0.00,,---,0.00,VWS V14.01,2013-03-05 01:51:00,
2013-03-04 20:56:00,21.5,19.8,29.92,NNW,333,13.0,31.0,93,0.00,,---,0.00,VWS V14.01,2013-03-05 01:56:00,
2013-03-04 21:01:00,21.5,19.8,29.92,WNW,300,17.0,25.0,93,0.00,,---,0.00,VWS V14.01,2013-03-05 02:01:00,
2013-03-04 21:06:00,21.5,19.8,29.92,WNW,290,12.0,33.0,93,0.00,,---,0.00,VWS V14.01,2013-03-05 02:06:00,
2013-03-04 21:11:00,21.5,19.8,29.92,WNW,302,18.0,25.0,93,0.00,,---,0.00,VWS V14.01,2013-03-05 02:11:00,
2013-03-04 21:16:00,21.5,19.8,29.92,NW,308,12.0,33.0,93,0.00,,---,0.00,VWS V14.01,2013-03-05 02:16:00,
2013-03-04 21:21:00,21.5,19.8,29.92,WNW,297,18.0,27.0,93,0.00,,---,0.00,VWS V14.01,2013-03-05 02:21:00,
2013-03-04 21:27:00,21.5,19.8,29.92,NW,319,14.0,24.0,93,0.00,,---,0.00,VWS V14.01,2013-03-05 02:27:00,
2013-03-04 21:32:00,21.5,19.8,29.92,WNW,294,11.0,30.0,93,0.00,,---,0.00,VWS V14.01,2013-03-05 02:32:00,
2013-03-04 21:37:00,21.5,20.0,29.92,NW,305,11.0,18.0,94,0.00,,---,0.00,VWS V14.01,2013-03-05 02:37:00,
2013-03-04 21:42:00,21.5,20.0,29.92,WNW,287,14.0,29.0,94,0.00,,---,0.00,VWS V14.01,2013-03-05 02:42:00,
2013-03-04 21:48:00,21.6,20.1,29.93,NNW,328,11.0,22.0,94,0.00,,---,0.00,VWS V14.01,2013-03-05 02:48:00,
2013-03-04 21:53:00,21.6,20.1,29.92,NW,310,10.0,24.0,94,0.00,,---,0.00,VWS V14.01,2013-03-05 02:53:00,
2013-03-04 21:58:00,21.6,20.1,29.93,NW,314,12.0,22.0,94,0.00,,---,0.00,VWS V14.01,2013-03-05 02:58:00,
2013-03-04 22:03:00,21.6,20.1,29.93,WNW,290,22.0,22.0,94,0.00,,---,0.00,VWS V14.01,2013-03-05 03:03:00,
2013-03-04 22:08:00,21.6,20.1,29.92,NW,319,16.0,26.0,94,0.00,,---,0.00,VWS V14.01,2013-03-05 03:08:00,
2013-03-04 22:15:00,21.6,20.1,29.93,NW,319,14.0,23.0,94,0.00,,---,0.00,VWS V14.01,2013-03-05 03:15:00,
2013-03-04 22:20:00,21.6,20.1,29.92,NNW,342,18.0,23.0,94,0.00,,---,0.00,VWS V14.01,2013-03-05 03:20:00,
2013-03-04 22:25:00,21.6,20.1,29.92,WNW,298,15.0,28.0,94,0.00,,---,0.00,VWS V14.01,2013-03-05 03:25:00,
2013-03-04 22:30:00,21.7,20.2,29.92,NW,307,17.0,23.0,94,0.00,,---,0.00,VWS V14.01,2013-03-05 03:30:00,
2013-03-04 22:35:00,21.7,20.2,29.92,WNW,302,13.0,24.0,94,0.00,,---,0.00,VWS V14.01,2013-03-05 03:35:00,
2013-03-04 22:41:00,21.7,20.2,29.92,WNW,301,8.0,23.0,94,0.00,,---,0.00,VWS V14.01,2013-03-05 03:41:00,
2013-03-04 22:46:00,21.7,20.2,29.92,WNW,302,18.0,24.0,94,0.00,,---,0.00,VWS V14.01,2013-03-05 03:46:00,
2013-03-04 22:51:00,21.9,20.2,29.93,NW,309,12.0,26.0,93,0.00,,---,0.00,VWS V14.01,2013-03-05 03:51:00,
2013-03-04 22:56:00,21.9,20.2,29.92,WNW,289,16.0,27.0,93,0.00,,---,0.00,VWS V14.01,2013-03-05 03:56:00,
2013-03-04 23:01:00,21.9,20.2,29.92,NW,310,11.0,21.0,93,0.00,,---,0.00,VWS V14.01,2013-03-05 04:01:00,
2013-03-04 23:06:00,22.0,20.3,29.92,WNW,292,11.0,27.0,93,0.00,,---,0.00,VWS V14.01,2013-03-05 04:06:00,
2013-03-04 23:11:00,22.0,20.3,29.92,NW,305,17.0,28.0,93,0.00,,---,0.00,VWS V14.01,2013-03-05 04:11:00,
2013-03-04 23:16:00,22.1,20.1,29.92,WNW,294,19.0,26.0,92,0.00,,---,0.00,VWS V14.01,2013-03-05 04:16:00,
2013-03-04 23:21:00,22.1,20.1,29.92,WNW,293,20.0,26.0,92,0.00,,---,0.00,VWS V14.01,2013-03-05 04:21:00,
2013-03-04 23:26:00,22.1,20.1,29.92,NW,305,19.0,23.0,92,0.00,,---,0.00,VWS V14.01,2013-03-05 04:26:00,
2013-03-04 23:31:00,22.2,20.2,29.92,WNW,302,17.0,23.0,92,0.00,,---,0.00,VWS V14.01,2013-03-05 04:31:00,
2013-03-04 23:36:00,22.3,20.1,29.92,NW,308,22.0,22.0,91,0.00,,---,0.00,VWS V14.01,2013-03-05 04:36:00,
2013-03-04 23:41:00,22.3,20.1,29.92,NW,319,15.0,20.0,91,0.00,,---,0.00,VWS V14.01,2013-03-05 04:41:00,
2013-03-04 23:46:00,22.3,20.1,29.93,WNW,291,12.0,23.0,91,0.00,,---,0.00,VWS V14.01,2013-03-05 04:46:00,
2013-03-04 23:51:00,22.3,20.1,29.93,WNW,294,19.0,21.0,91,0.00,,---,0.00,VWS V14.01,2013-03-05 04:51:00,
2013-03-04 23:56:00,22.3,20.1,29.93,WNW,301,12.0,24.0,91,0.00,,---,0.00,VWS V14.01,2013-03-05 04:56:00,